Change the Weather History Date:

Friday, January 18, 2013

  Actual Average Record
Temperature  
Mean Temperature 35 °F -  
Max Temperature 37 °F 39 °F 55 °F (1981)
Min Temperature 33 °F 32 °F 5 °F (1972)
Degree Days  
Heating Degree Days 30    
Moisture  
Dew Point 34 °F    
Average Humidity 95    
Maximum Humidity 100    
Minimum Humidity 82    
Precipitation  
Precipitation 0.16 in - - ()
Sea Level Pressure  
Sea Level Pressure 30.10 in    
Wind  
Wind Speed 5 mph (East)    
Max Wind Speed 12 mph    
Max Gust Speed 16 mph    
Visibility 9 miles    
Events Rain , Snow    
Averages and records for this station are not official NWS values.
T = Trace of Precipitation, MM = Missing Value Source: NWS Daily Summary

Daily Weather History Graph

Daily Weather History Graph

Search for Another Location

Airport or City:

Trip Planner

Search our weather history database for the weather conditions in past years. The results will help you decide how hot, cold, wet, or windy it might be!

Date:

Astronomy

Jan. 18, 2013 Rise Set
Actual Time 8:24 AM AKST 4:00 PM AKST
Civil Twilight 7:38 AM AKST 4:46 PM AKST
Nautical Twilight 6:50 AM AKST 5:34 PM AKST
Astronomical Twilight 6:04 AM AKST 6:20 PM AKST
Moon 10:24 AM AKST (1/18) 12:35 AM AKST (1/18)
Length of Visible Light 9h 07m
Length of Day
7h 36m
Waxing Crescent, 49% of the Moon is Illuminated
Jan 18
Waxing Crescent
Jan 18
First Quarter
Jan 26
Full
Feb 3
Last Quarter
Feb 9
New

Hourly Weather History & Observations

Time (AKST) Temp. Windchill Dew Point Humidity Pressure Visibility Wind Dir Wind Speed Gust Speed Precip Events Conditions
12:51 AM 35.6 °F 27.5 °F 33.8 °F 93% 29.97 in 5.0 mi SSW 11.5 mph 16.1 mph 0.01 in Rain Rain
12:53 AM 35.1 °F 28.6 °F 34.0 °F 96% 29.97 in 4.0 mi SSW 8.1 mph - 0.02 in   Light Ice Pellets
1:03 AM 33.8 °F 27.0 °F 33.8 °F 100% 29.98 in 4.0 mi South 8.1 mph - 0.01 in Snow Light Snow
1:13 AM 33.8 °F 29.6 °F 33.8 °F 100% 29.98 in 2.5 mi SSE 4.6 mph - 0.03 in Snow Light Snow
1:23 AM 33.8 °F - 33.8 °F 100% 29.99 in 4.0 mi Calm Calm - 0.04 in Snow Light Snow
1:53 AM 34.0 °F 29.8 °F 34.0 °F 100% 29.99 in 10.0 mi ENE 4.6 mph - 0.04 in   Overcast
2:04 AM 33.8 °F 29.6 °F 33.8 °F 100% 29.99 in 10.0 mi East 4.6 mph - N/A   Overcast
2:39 AM 35.6 °F 31.7 °F 33.8 °F 93% 30.00 in 9.0 mi SSE 4.6 mph - 0.03 in   Overcast
2:51 AM 33.8 °F 28.6 °F 33.8 °F 100% 30.00 in 10.0 mi East 5.8 mph - 0.03 in   Overcast
2:53 AM 34.0 °F 28.0 °F 33.1 °F 96% 30.01 in 10.0 mi East 6.9 mph - 0.03 in   Overcast
3:35 AM 33.8 °F 29.6 °F 33.8 °F 100% 30.01 in 4.0 mi ENE 4.6 mph - 0.02 in Snow Light Snow
3:51 AM 33.8 °F 29.6 °F 33.8 °F 100% 30.01 in 6.0 mi ENE 4.6 mph - 0.03 in Rain Light Rain
3:53 AM 33.1 °F 28.7 °F 33.1 °F 100% 30.01 in 8.0 mi ENE 4.6 mph - 0.03 in Rain Light Rain
4:17 AM 33.8 °F 30.8 °F 33.8 °F 100% 30.02 in 10.0 mi ENE 3.5 mph - 0.00 in   Overcast
4:33 AM 33.8 °F 30.8 °F 33.8 °F 100% 30.02 in 10.0 mi ENE 3.5 mph - 0.00 in   Overcast
4:53 AM 34.0 °F 31.0 °F 34.0 °F 100% 30.03 in 10.0 mi ENE 3.5 mph - 0.00 in   Overcast
5:09 AM 33.8 °F - 33.8 °F 100% 30.03 in 10.0 mi Calm Calm - N/A   Overcast
5:19 AM 35.6 °F - 33.8 °F 93% 30.04 in 10.0 mi Calm Calm - 0.00 in Rain Light Rain
5:39 AM 35.6 °F - 35.6 °F 100% 30.04 in 10.0 mi Calm Calm - 0.00 in   Mostly Cloudy
5:48 AM 33.8 °F 29.6 °F 33.8 °F 100% 30.04 in 10.0 mi East 4.6 mph - 0.00 in   Mostly Cloudy
5:53 AM 34.0 °F 29.8 °F 33.1 °F 96% 30.04 in 10.0 mi East 4.6 mph - 0.00 in   Overcast
6:18 AM 35.6 °F 32.8 °F 33.8 °F 93% 30.04 in 6.0 mi East 3.5 mph - 0.01 in Rain Light Rain
6:24 AM 35.6 °F - 33.8 °F 93% 30.05 in 10.0 mi Calm Calm - 0.01 in Rain Light Rain
6:31 AM 35.6 °F 31.7 °F 33.8 °F 93% 30.05 in 10.0 mi ESE 4.6 mph - 0.01 in   Overcast
6:53 AM 35.1 °F 31.0 °F 34.0 °F 96% 30.06 in 10.0 mi East 4.6 mph - 0.01 in   Overcast
7:31 AM 35.6 °F 32.8 °F 35.6 °F 100% 30.08 in 10.0 mi East 3.5 mph - N/A   Overcast
7:40 AM 35.6 °F 29.9 °F 35.6 °F 100% 30.09 in 4.0 mi NW 6.9 mph - 0.01 in Rain Ice Pellets
7:51 AM 35.6 °F 31.7 °F 33.8 °F 93% 30.09 in 8.0 mi North 4.6 mph - 0.03 in Rain Ice Pellets
7:53 AM 35.1 °F 32.2 °F 34.0 °F 96% 30.09 in 10.0 mi North 3.5 mph - 0.03 in   Overcast
8:53 AM 36.0 °F - 34.0 °F 93% 30.13 in 10.0 mi Calm Calm - N/A   Overcast
9:53 AM 35.1 °F 31.0 °F 34.0 °F 96% 30.15 in 10.0 mi ENE 4.6 mph - N/A   Overcast
10:53 AM 35.1 °F 32.2 °F 34.0 °F 96% 30.18 in 10.0 mi East 3.5 mph - N/A   Overcast
11:53 AM 36.0 °F 33.3 °F 35.1 °F 97% 30.19 in 10.0 mi East 3.5 mph - N/A   Overcast
12:45 PM 35.6 °F 32.8 °F 35.6 °F 100% 30.19 in 10.0 mi ESE 3.5 mph - N/A   Overcast
12:51 PM 35.6 °F - 35.6 °F 100% 30.20 in 10.0 mi Calm Calm - N/A   Overcast
12:53 PM 37.0 °F - 35.1 °F 93% 30.20 in 10.0 mi Calm Calm - N/A   Overcast
1:53 PM 36.0 °F - 35.1 °F 97% 30.21 in 10.0 mi Calm Calm - N/A   Overcast
2:53 PM 36.0 °F 32.1 °F 34.0 °F 93% 30.21 in 10.0 mi East 4.6 mph - N/A   Overcast
3:53 PM 36.0 °F 31.1 °F 34.0 °F 93% 30.21 in 10.0 mi East 5.8 mph - N/A   Overcast
4:53 PM 35.1 °F 32.2 °F 33.1 °F 92% 30.22 in 10.0 mi East 3.5 mph - N/A   Overcast
5:53 PM 35.1 °F - 32.0 °F 89% 30.23 in 10.0 mi Calm Calm - N/A   Overcast
6:53 PM 35.1 °F 32.2 °F 32.0 °F 89% 30.23 in 10.0 mi East 3.5 mph - N/A   Overcast
7:53 PM 34.0 °F - 32.0 °F 92% 30.24 in 10.0 mi Calm Calm - N/A   Overcast
8:53 PM 35.1 °F 28.6 °F 30.9 °F 85% 30.23 in 10.0 mi East 8.1 mph - N/A   Overcast
9:53 PM 35.1 °F 31.0 °F 30.9 °F 85% 30.24 in 10.0 mi East 4.6 mph - N/A   Overcast
10:53 PM 36.0 °F 29.6 °F 30.9 °F 82% 30.25 in 10.0 mi ESE 8.1 mph - N/A   Overcast
11:53 PM 36.0 °F 31.1 °F 30.9 °F 82% 30.24 in 10.0 mi East 5.8 mph - N/A   Overcast